This demonstration page uses our WeatherBlox Daily Observations layout. Learn more.

Left ArrowRight Arrow

36.17497, -115.13722

Hourly Observations for November 19, 2020

Temp ( °F °C ) Dew Point ( °F °C ) Humidity (%) Winds ( mph kmh ) Pressure ( in mb ) Visibility ( mi km ) Precip ( " mm )
12:53 am 00:53 Clear 62 16.7 34 1.1 35 35 WSW 12 19 29.95 1014 10 16 0.00 0.00
1:53 am 01:53 Clear 59 15 35 1.7 41 41 W 8 13 29.98 1015 10 16 0.00 0.00
2:53 am 02:53 Clear 57 13.9 35 1.7 44 44 NW 3 6 30.00 1016 10 16 0.00 0.00
3:53 am 03:53 Clear 56 13.3 29 -1.7 36 36 Calm 30.02 1017 10 16 0.00 0.00
4:53 am 04:53 Clear 55 12.8 29 -1.7 37 37 WNW 9 15 30.03 1017 10 16 0.00 0.00
5:53 am 05:53 Clear 58 14.4 31 -0.6 36 36 NW 10 17 30.06 1018 10 16 0.00 0.00
6:53 am 06:53 Sunny 56 13.3 32 0 40 40 NW 10 17 30.08 1019 10 16 0.00 0.00
7:53 am 07:53 Sunny 60 15.6 33 0.6 36 36 NW 9 15 30.12 1020 10 16 0.00 0.00
8:53 am 08:53 Sunny 63 17.2 34 1.1 34 34 WNW 12 19 30.13 1020 10 16 0.00 0.00
9:53 am 09:53 Sunny 67 19.4 35 1.7 31 31 NNW 12 19 30.14 1021 10 16 0.00 0.00
10:53 am 10:53 Sunny 70 21.1 34 1.1 27 27 N 10 17 30.12 1020 10 16 0.00 0.00
11:53 am 11:53 Sunny 70 21.1 33 0.6 26 26 E 5 7 30.11 1020 10 16 0.00 0.00
12:53 pm 12:53 Sunny 71 21.7 33 0.6 25 25 VRB 6 9 30.09 1019 10 16 0.00 0.00
1:53 pm 13:53 Sunny 72 22.2 32 0 23 23 Calm 30.08 1019 10 16 0.00 0.00
2:53 pm 14:53 Sunny 72 22.2 31 -0.6 22 22 ESE 3 6 30.07 1018 10 16 0.00 0.00
3:53 pm 15:53 Sunny 71 21.7 30 -1.1 22 22 SE 3 6 30.07 1018 10 16 0.00 0.00
4:53 pm 16:53 Clear 68 20 30 -1.1 24 24 E 3 6 30.07 1018 10 16 0.00 0.00
5:53 pm 17:53 Clear 64 17.8 31 -0.6 29 29 Calm 30.08 1019 10 16 0.00 0.00
6:53 pm 18:53 Clear 62 16.7 33 0.6 34 34 NW 6 9 30.10 1019 10 16 0.00 0.00
7:53 pm 19:53 Clear 59 15 34 1.1 39 39 WNW 6 9 30.11 1020 10 16 0.00 0.00
8:53 pm 20:53 Clear 58 14.4 33 0.6 39 39 Calm 30.11 1020 10 16 0.00 0.00
9:53 pm 21:53 Clear 56 13.3 33 0.6 42 42 WNW 5 7 30.11 1020 10 16 0.00 0.00
10:53 pm 22:53 Clear 54 12.2 32 0 43 43 NW 5 7 30.12 1020 10 16 0.00 0.00
11:53 pm 23:53 Clear 56 13.3 32 0 40 40 W 6 9 30.12 1020 10 16 0.00 0.00

Powered by AerisWeather